Printer-friendly version

IAU Minor Planet Center

Minor Planet Center

MPEC 2008-T114: 2008 TM26

The following Minor Planet Electronic Circular may be linked-to from your own Web pages, but must not otherwise be redistributed electronically.


Read MPEC 2008-T113 Read MPEC 2008-T115


M.P.E.C. 2008-T114                               Issued 2008 Oct. 10, 19:02 UT

     The Minor Planet Electronic Circulars contain information on unusual
         minor planets and routine data on comets.  They are published
   on behalf of Commission 20 of the International Astronomical Union by the
          Minor Planet Center, Smithsonian Astrophysical Observatory,
                          Cambridge, MA 02138, U.S.A.

             Prepared using the Tamkin Foundation Computer Network

                              MPC@CFA.HARVARD.EDU
          URL http://www.cfa.harvard.edu/iau/mpc.html  ISSN 1523-6714

                                   2008 TM26

Observations:
     K08T26M* C2008 10 09.28140 00 48 53.17 +40 25 25.5          19.2   ET114704
     K08T26M  C2008 10 09.29422 00 48 55.59 +40 24 27.3          19.0   ET114704
     K08T26M  C2008 10 09.30704 00 48 58.05 +40 23 31.4          19.6   ET114704
     K08T26M  C2008 10 09.93888 00 51 23.06 +39 38 23.7          19.3 R ET114473
     K08T26M  C2008 10 10.11467 00 51 55.15 +39 26 09.4                 ET114204
     K08T26M  C2008 10 10.11850 00 51 55.88 +39 25 53.4                 ET114204
     K08T26M  C2008 10 10.12233 00 51 56.62 +39 25 36.7          19.3 R ET114204
     K08T26M  C2008 10 10.21104 00 52 23.19 +39 20 17.1          18.9   ET114704
     K08T26M  C2008 10 10.22385 00 52 25.28 +39 19 28.1          19.5   ET114704
     K08T26M  C2008 10 10.23777 00 52 27.61 +39 18 32.5          19.6   ET114704
     K08T26M  C2008 10 10.25145 00 52 29.90 +39 17 40.2          19.4   ET114704
     K08T26M  C2008 10 10.36022 00 52 45.43 +39 10 10.1          19.4 R ET114850
     K08T26M  C2008 10 10.36732 00 52 46.66 +39 09 41.1          19.7 R ET114850
     K08T26M  C2008 10 10.37437 00 52 47.93 +39 09 10.7          19.7 R ET114850
     K08T26M  C2008 10 10.38120 00 52 49.13 +39 08 41.6          19.5 R ET114850
     K08T26M  C2008 10 10.38806 00 52 50.41 +39 08 14.7          18.1 R ET114850

Observer details:
204 Schiaparelli Observatory.  Observer L. Buzzi.  0.38-m f/6.8 reflector
    + CCD.
473 Remanzacco.  Observers L. Donato, M. Gonano, V. Gonano, E. Guido,
    V. Santini, G. Sostero.  0.45-m f/4.4 Newtonian reflector + CCD.
704 Lincoln Laboratory ETS, New Mexico.  Observers M. Bezpalko, D. Torres,
    R. Kracke, G. Spitz, J. Kistler.  Measurers J. Stuart, S. Scruggs.  1.0-m
    f/2.15 reflector + CCD.
850 Cordell-Lorenz Observatory, Sewanee.  Observer D. T. Durig.  0.30-m f/2.5
    Schmidt-Cassegrain + 765x510 CCD.

Orbital elements:
2008 TM26                                                Earth MOID = 0.0279 AU
Epoch 2008 Nov. 30.0 TT = JDT 2454800.5                 MPC
M  44.99667              (2000.0)            P               Q
n   0.45607001     Peri.  342.86564     +0.76742108     +0.64065408
a   1.6715333      Node   337.23587     -0.58039217     +0.67757698
e   0.4509928      Incl.    3.71108     -0.27241479     +0.36118110
P   2.16           H   23.1           G   0.15           U   8
Residuals in seconds of arc
081009 704  0.2+  0.6+    081010 204  0.1-  0.4+    081010 850  0.3-  0.6+
081009 704  0.2-  0.9-    081010 704  0.1-  0.4-    081010 850  0.0   0.3-
081009 704  0.1-  0.2+    081010 704  0.4-  0.1+    081010 850  0.2-  0.8-
081009 473  0.2+  0.3-    081010 704  0.2+  1.3-    081010 850  0.4+  1.1+
081010 204  0.3-  0.4+    081010 704  1.1+  0.1-
081010 204  0.2-  0.7+    081010 850  0.2-  0.1-

Ephemeris:
2008 TM26                a,e,i = 1.67, 0.45, 4                   q = 0.9177
Date    TT    R. A. (2000) Decl.     Delta      r     Elong.  Phase     V
2008 10 11    00 54.90   +38 29.8    0.0932   1.079   148.4    29.0    19.4
2008 10 13    01 00.24   +36 37.6    0.105    1.090   151.0    26.3    19.6
2008 10 15    01 04.38   +35 03.3    0.116    1.102   153.2    24.1    19.8
2008 10 17    01 07.68   +33 42.4    0.128    1.114   155.1    22.1    19.9
2008 10 19    01 10.39   +32 31.8    0.141    1.126   156.7    20.5    20.1
2008 10 21    01 12.66   +31 29.2    0.153    1.139   158.0    19.1    20.3
2008 10 23    01 14.62   +30 33.2    0.166    1.151   159.1    18.0    20.4
2008 10 25    01 16.35   +29 42.5    0.179    1.164   159.8    17.1    20.6
2008 10 27    01 17.93   +28 56.4    0.192    1.177   160.3    16.5    20.8
2008 10 29    01 19.40   +28 14.1    0.206    1.190   160.5    16.2    20.9
2008 10 31    01 20.80   +27 35.2    0.220    1.203   160.4    16.1    21.1
2008 11 02    01 22.17   +26 59.4    0.235    1.216   160.1    16.1    21.3
2008 11 04    01 23.52   +26 26.3    0.250    1.229   159.5    16.4    21.4
2008 11 06    01 24.89   +25 55.7    0.265    1.242   158.8    16.8    21.6
2008 11 08    01 26.27   +25 27.5    0.281    1.256   157.8    17.3    21.8
2008 11 10    01 27.69   +25 01.4    0.297    1.269   156.8    17.9    21.9

Timothy B. Spahr             (C) Copyright 2008 MPC           M.P.E.C. 2008-T114

Read MPEC 2008-T113 Read MPEC 2008-T115


Our Web policy. Index to the CBAT/MPC/ICQ pages.


Valid HTML 4.01!